, FL

(GMT )
Crestview

Weather History for KEGI - August, 2014

Change the Weather History Date:

Friday, August 29, 2014

  Actual Average (WUND) Record (WUND)
Temperature  
Mean Temperature 81 °F -  
Max Temperature 94 °F - - (-1)
Min Temperature 68 °F - - (-1)
Cooling Degree Days 16    
Growing Degree Days 31 (Base 50)    
Moisture  
Dew Point 72 °F    
Average Humidity 76    
Maximum Humidity 99    
Minimum Humidity 48    
Precipitation  
Precipitation 0.00 in - - ()
Sea Level Pressure  
Sea Level Pressure 30.01 in    
Wind  
Wind Speed 5 mph (ESE)    
Max Wind Speed 14 mph    
Max Gust Speed 18 mph    
Visibility 10 miles    
Events      
Averages and records for this station are not official NWS values.
T = Trace of Precipitation, MM = Missing Value Source: NWS Daily Summary

Daily Weather History Graph

Daily Weather History Graph

Search for Another Location

Airport or City:

Astronomy

Aug. 29, 2014 Rise Set
Actual Time 6:20 AM CDT 7:12 PM CDT
Civil Twilight 5:56 AM CDT 7:37 PM CDT
Nautical Twilight 5:27 AM CDT 8:06 PM CDT
Astronomical Twilight 4:57 AM CDT 8:36 PM CDT
Moon 9:51 AM CDT (8/29) 9:29 PM CDT (8/29)
Length of Visible Light 13h 41m
Length of Day
12h 51m
Waxing Crescent, 15% of the Moon is Illuminated
Aug 29
Waxing Crescent
Sep 2
First Quarter
Sep 8
Full
Sep 15
Last Quarter
Sep 24
New

Hourly Weather History & Observations

Time (CDT) Temp. Heat Index Dew Point Humidity Pressure Visibility Wind Dir Wind Speed Gust Speed Precip Events Conditions
12:58 AM 72.3 °F - 69.3 °F 90% 30.01 in 10.0 mi Calm Calm - N/A   Clear
1:58 AM 71.1 °F - 69.3 °F 94% 29.99 in 10.0 mi NNE 2.3 mph - N/A   Clear
2:58 AM 70.9 °F - 69.4 °F 95% 29.99 in 9.0 mi NNE 2.3 mph - N/A   Clear
4:58 AM 68.2 °F - 67.8 °F 99% 29.99 in 8.0 mi North 4.6 mph - N/A   Clear
5:58 AM 68.7 °F - 68.5 °F 99% 29.99 in 7.0 mi NE 4.6 mph - N/A   Clear
6:58 AM 70.5 °F - 70.3 °F 99% 30.01 in 10.0 mi ENE 3.5 mph - N/A   Partly Cloudy
7:58 AM 77.2 °F - 72.3 °F 85% 30.01 in 10.0 mi ENE 6.9 mph - N/A   Clear
8:55 AM 83.1 °F 88.1 °F 71.4 °F 68% 30.02 in 10.0 mi East 6.9 mph - N/A   Mostly Cloudy
9:55 AM 87.4 °F 91.2 °F 68.2 °F 53% 30.04 in 10.0 mi East 10.4 mph - N/A   Mostly Cloudy
10:55 AM 90.0 °F 94.1 °F 68.4 °F 49% 30.04 in 10.0 mi Calm Calm - N/A   Mostly Cloudy
11:55 AM 92.3 °F 98.1 °F 69.8 °F 48% 30.01 in 10.0 mi East 5.8 mph 18.4 mph N/A   Mostly Cloudy
12:31 PM 93.2 °F 100.5 °F 71.6 °F 49% 30.01 in 10.0 mi SSE 11.5 mph 18.4 mph N/A   Mostly Cloudy
12:55 PM 93.0 °F 100.7 °F 72.0 °F 50% 29.99 in 10.0 mi South 8.1 mph - N/A   Mostly Cloudy
1:56 PM 94.5 °F 104.6 °F 73.6 °F 51% 29.99 in 10.0 mi SE 8.1 mph - N/A   Mostly Cloudy
2:55 PM 87.4 °F 94.4 °F 72.7 °F 61% 29.99 in 10.0 mi South 11.5 mph - N/A   Mostly Cloudy
3:55 PM 86.4 °F 93.4 °F 72.9 °F 64% 29.99 in 10.0 mi ESE 11.5 mph - N/A   Overcast
4:58 PM 84.9 °F 93.7 °F 75.6 °F 73% 29.99 in 10.0 mi SSE 13.8 mph - N/A   Clear
5:58 PM 84.0 °F 92.6 °F 75.9 °F 76% 29.99 in 10.0 mi South 8.1 mph - N/A   Clear
6:58 PM 83.3 °F 91.8 °F 76.3 °F 79% 29.99 in 10.0 mi South 5.8 mph - N/A   Partly Cloudy
7:58 PM 81.5 °F 89.0 °F 77.0 °F 86% 30.04 in 10.0 mi SE 4.6 mph - N/A   Clear
8:58 PM 80.4 °F 86.6 °F 77.0 °F 89% 30.06 in 10.0 mi ESE 5.8 mph - N/A   Scattered Clouds
9:58 PM 78.1 °F - 76.1 °F 94% 30.06 in 10.0 mi SSE 3.5 mph - N/A   Clear
11:58 PM 75.9 °F - 75.7 °F 99% 30.06 in 10.0 mi SE 3.5 mph - N/A   Clear